QPF
0.00 0.00 0.00 0.00 0.00 0.00 0.01 0.01 0.01 0.02 0.02 0.02 0.02 0.04 0.05 0.06 0.06 0.05 0.04 0.04 0.04 0.04 0.04 0.04 0.04 0.04 0.03 0.03 0.04 0.05 0.06 0.07 0.08 0.08 0.07 0.04 0.02 0.01 0.01 0.02 0.03 0.03 0.04
0.00 0.00 0.01 0.01 0.01 0.01 0.01 0.01 0.01 0.01 0.02 0.02 0.01 0.01 0.03 0.05 0.06 0.06 0.05 0.05 0.05 0.04 0.04 0.05 0.05 0.04 0.04 0.03 0.03 0.04 0.04 0.04 0.07 0.09 0.08 0.07 0.05 0.03 0.01 0.01 0.01 0.02 0.02
0.00 0.00 0.01 0.01 0.01 0.01 0.01 0.01 0.01 0.02 0.02 0.01 0.02 0.02 0.02 0.04 0.06 0.08 0.07 0.05 0.05 0.05 0.04 0.04 0.04 0.04 0.04 0.03 0.02 0.02 0.04 0.04 0.05 0.06 0.09 0.08 0.06 0.04 0.02 0.01 0.01 0.01 0.01
0.00 0.00 0.00 0.01 0.01 0.02 0.02 0.01 0.02 0.02 0.02 0.02 0.02 0.02 0.01 0.02 0.04 0.07 0.11 0.09 0.06 0.07 0.05 0.04 0.04 0.05 0.04 0.03 0.02 0.01 0.02 0.03 0.04 0.04 0.05 0.07 0.08 0.07 0.06 0.03 0.02 0.01 0.01
0.00 0.00 0.00 0.01 0.01 0.02 0.01 0.02 0.02 0.02 0.02 0.02 0.02 0.02 0.01 0.02 0.03 0.05 0.08 0.13 0.10 0.07 0.07 0.05 0.05 0.04 0.04 0.04 0.03 0.02 0.02 0.02 0.03 0.04 0.04 0.05 0.06 0.06 0.06 0.05 0.05 0.04 0.02
0.00 0.00 0.00 0.00 0.01 0.02 0.02 0.02 0.02 0.02 0.02 0.02 0.02 0.02 0.01 0.01 0.03 0.05 0.06 0.11 0.15 0.10 0.07 0.05 0.05 0.05 0.04 0.03 0.03 0.03 0.02 0.02 0.03 0.03 0.03 0.04 0.05 0.06 0.05 0.04 0.04 0.05 0.05
0.00 0.00 0.00 0.00 0.00 0.02 0.02 0.02 0.02 0.02 0.02 0.02 0.02 0.02 0.02 0.02 0.02 0.03 0.06 0.09 0.15 0.16 0.10 0.06 0.05 0.05 0.06 0.05 0.04 0.03 0.02 0.02 0.01 0.02 0.03 0.03 0.03 0.04 0.05 0.04 0.04 0.04 0.04
0.00 0.00 0.00 0.00 0.00 0.01 0.02 0.02 0.02 0.02 0.02 0.02 0.02 0.02 0.02 0.02 0.02 0.03 0.04 0.07 0.11 0.19 0.22 0.15 0.08 0.06 0.05 0.06 0.06 0.05 0.04 0.03 0.02 0.02 0.02 0.03 0.03 0.03 0.03 0.04 0.04 0.04 0.03
0.00 0.00 0.00 0.00 0.00 0.01 0.02 0.02 0.02 0.02 0.02 0.02 0.02 0.02 0.02 0.02 0.03 0.03 0.04 0.05 0.07 0.11 0.18 0.20 0.12 0.07 0.06 0.06 0.05 0.06 0.05 0.04 0.03 0.03 0.02 0.02 0.02 0.03 0.04 0.04 0.04 0.04 0.04
0.00 0.00 0.00 0.00 0.00 0.01 0.01 0.02 0.02 0.02 0.02 0.02 0.02 0.02 0.02 0.02 0.03 0.03 0.04 0.05 0.06 0.06 0.08 0.11 0.12 0.09 0.06 0.06 0.06 0.05 0.06 0.06 0.04 0.03 0.02 0.02 0.02 0.02 0.03 0.05 0.05 0.04 0.04
0.00 0.00 0.00 0.00 0.00 0.01 0.01 0.01 0.01 0.02 0.02 0.02 0.02 0.02 0.02 0.02 0.02 0.03 0.04 0.05 0.06 0.05 0.06 0.07 0.08 0.09 0.08 0.07 0.07 0.05 0.04 0.04 0.04 0.04 0.03 0.03 0.02 0.02 0.02 0.03 0.04 0.06 0.05
0.00 0.00 0.00 0.00 0.00 0.01 0.01 0.01 0.01 0.02 0.02 0.02 0.02 0.02 0.02 0.02 0.02 0.03 0.03 0.05 0.07 0.06 0.06 0.06 0.07 0.09 0.10 0.10 0.09 0.07 0.05 0.04 0.04 0.03 0.03 0.03 0.03 0.03 0.03 0.03 0.03 0.04 0.05
0.00 0.00 0.00 0.00 0.00 0.00 0.01 0.01 0.02 0.02 0.02 0.02 0.02 0.02 0.02 0.02 0.02 0.02 0.03 0.05 0.07 0.07 0.06 0.06 0.05 0.06 0.07 0.09 0.11 0.10 0.08 0.06 0.04 0.03 0.03 0.03 0.03 0.03 0.03 0.04 0.03 0.03 0.03
0.00 0.00 0.00 0.00 0.00 0.00 0.01 0.01 0.02 0.02 0.03 0.03 0.02 0.02 0.02 0.02 0.02 0.03 0.03 0.04 0.06 0.08 0.09 0.07 0.05 0.04 0.03 0.05 0.07 0.09 0.10 0.09 0.07 0.04 0.02 0.03 0.03 0.03 0.03 0.04 0.04 0.04 0.03
0.00 0.00 0.00 0.00 0.00 0.00 0.00 0.02 0.02 0.02 0.03 0.03 0.02 0.02 0.02 0.02 0.02 0.03 0.03 0.03 0.05 0.07 0.09 0.09 0.07 0.05 0.04 0.03 0.03 0.05 0.07 0.08 0.09 0.07 0.04 0.03 0.03 0.04 0.05 0.05 0.05 0.04 0.05
0.00 0.00 0.00 0.00 0.00 0.00 0.00 0.01 0.03 0.03 0.03 0.03 0.03 0.02 0.02 0.02 0.02 0.03 0.03 0.03 0.04 0.05 0.07 0.08 0.07 0.06 0.05 0.04 0.04 0.04 0.05 0.06 0.07 0.08 0.07 0.05 0.04 0.04 0.06 0.06 0.06 0.05 0.05
0.01 0.01 0.01 0.01 0.01 0.01 0.01 0.01 0.03 0.03 0.03 0.03 0.03 0.02 0.02 0.02 0.02 0.03 0.03 0.03 0.03 0.04 0.05 0.06 0.06 0.05 0.04 0.04 0.04 0.04 0.04 0.04 0.04 0.05 0.05 0.06 0.05 0.05 0.04 0.05 0.06 0.06 0.06
0.01 0.01 0.01 0.01 0.01 0.01 0.01 0.01 0.02 0.03 0.03 0.04 0.03 0.02 0.02 0.03 0.02 0.02 0.03 0.02 0.03 0.03 0.04 0.04 0.05 0.04 0.03 0.03 0.04 0.05 0.04 0.03 0.03 0.03 0.04 0.04 0.04 0.05 0.05 0.05 0.04 0.04 0.05
0.01 0.01 0.01 0.01 0.01 0.01 0.01 0.01 0.02 0.04 0.04 0.03 0.03 0.02 0.02 0.03 0.02 0.02 0.02 0.02 0.02 0.02 0.02 0.03 0.04 0.04 0.04 0.04 0.04 0.05 0.04 0.03 0.03 0.02 0.03 0.03 0.03 0.04 0.05 0.06 0.05 0.05 0.05
0.00 0.01 0.01 0.01 0.01 0.02 0.02 0.01 0.02 0.03 0.04 0.03 0.03 0.03 0.02 0.02 0.02 0.02 0.01 0.02 0.02 0.02 0.02 0.02 0.02 0.03 0.03 0.04 0.04 0.05 0.05 0.06 0.05 0.03 0.02 0.03 0.03 0.04 0.05 0.05 0.05 0.05 0.05
0.00 0.01 0.01 0.01 0.02 0.02 0.02 0.01 0.02 0.02 0.03 0.03 0.03 0.02 0.02 0.02 0.02 0.02 0.01 0.01 0.01 0.01 0.01 0.01 0.01 0.02 0.02 0.03 0.04 0.04 0.06 0.07 0.07 0.06 0.04 0.03 0.04 0.04 0.04 0.04 0.04 0.05 0.05
0.00 0.00 0.01 0.01 0.02 0.03 0.03 0.02 0.03 0.03 0.02 0.03 0.03 0.02 0.02 0.02 0.01 0.02 0.02 0.02 0.01 0.01 0.01 0.01 0.01 0.01 0.01 0.02 0.03 0.03 0.04 0.06 0.08 0.07 0.06 0.05 0.05 0.04 0.04 0.04 0.05 0.06 0.07
0.00 0.00 0.01 0.01 0.02 0.03 0.03 0.03 0.04 0.04 0.03 0.03 0.03 0.04 0.03 0.02 0.01 0.02 0.02 0.02 0.01 0.01 0.01 0.01 0.01 0.01 0.01 0.01 0.02 0.03 0.03 0.04 0.05 0.06 0.06 0.07 0.06 0.05 0.04 0.04 0.05 0.06 0.07
0.00 0.01 0.01 0.01 0.01 0.02 0.03 0.03 0.04 0.04 0.03 0.03 0.03 0.03 0.03 0.02 0.02 0.02 0.02 0.02 0.02 0.02 0.01 0.02 0.02 0.01 0.01 0.01 0.02 0.03 0.03 0.03 0.03 0.04 0.04 0.05 0.07 0.07 0.05 0.05 0.06 0.06 0.06
0.01 0.01 0.01 0.01 0.01 0.01 0.02 0.03 0.04 0.03 0.03 0.02 0.02 0.02 0.03 0.03 0.03 0.02 0.02 0.02 0.02 0.02 0.03 0.03 0.03 0.03 0.03 0.03 0.04 0.04 0.04 0.03 0.04 0.04 0.04 0.05 0.06 0.07 0.07 0.06 0.06 0.07 0.07
0.00 0.00 0.00 0.01 0.01 0.01 0.01 0.02 0.02 0.03 0.03 0.02 0.02 0.02 0.03 0.03 0.03 0.02 0.02 0.02 0.02 0.02 0.02 0.02 0.03 0.03 0.03 0.03 0.04 0.04 0.04 0.04 0.05 0.05 0.05 0.05 0.06 0.06 0.07 0.07 0.07 0.06 0.07
MSLP
1027.44 1028.16 1028.80 1029.36 1029.82 1030.18 1030.45 1030.62 1030.72 1030.77 1030.77 1030.74 1030.70 1030.66 1030.61 1030.56 1030.50 1030.41 1030.30 1030.14 1029.93 1029.69 1029.41 1029.12 1028.81 1028.49 1028.17 1027.84 1027.47 1027.05 1026.56 1025.98 1025.32 1024.59 1023.81 1023.02 1022.25 1021.53 1020.88 1020.32 1019.84 1019.42 1019.05
1026.93 1027.74 1028.48 1029.12 1029.65 1030.06 1030.38 1030.60 1030.74 1030.83 1030.87 1030.88 1030.87 1030.84 1030.79 1030.72 1030.63 1030.51 1030.36 1030.19 1029.99 1029.77 1029.54 1029.30 1029.06 1028.81 1028.54 1028.25 1027.90 1027.49 1027.01 1026.45 1025.81 1025.11 1024.37 1023.62 1022.89 1022.20 1021.57 1021.01 1020.50 1020.05 1019.63
1026.29 1027.19 1028.02 1028.75 1029.35 1029.83 1030.20 1030.48 1030.67 1030.81 1030.90 1030.96 1030.98 1030.96 1030.92 1030.84 1030.72 1030.58 1030.42 1030.23 1030.05 1029.86 1029.67 1029.48 1029.29 1029.09 1028.87 1028.60 1028.27 1027.87 1027.40 1026.85 1026.24 1025.59 1024.91 1024.22 1023.55 1022.91 1022.30 1021.74 1021.22 1020.72 1020.25
1025.53 1026.51 1027.42 1028.23 1028.91 1029.46 1029.89 1030.23 1030.49 1030.68 1030.83 1030.93 1030.99 1031.01 1030.98 1030.90 1030.78 1030.62 1030.45 1030.27 1030.10 1029.93 1029.78 1029.64 1029.49 1029.32 1029.12 1028.86 1028.54 1028.15 1027.69 1027.17 1026.61 1026.01 1025.40 1024.79 1024.18 1023.60 1023.03 1022.47 1021.93 1021.39 1020.86
1024.68 1025.72 1026.70 1027.58 1028.33 1028.95 1029.45 1029.85 1030.17 1030.43 1030.64 1030.80 1030.90 1030.95 1030.95 1030.89 1030.77 1030.63 1030.46 1030.29 1030.13 1029.99 1029.86 1029.74 1029.62 1029.47 1029.27 1029.02 1028.70 1028.32 1027.88 1027.39 1026.88 1026.34 1025.81 1025.27 1024.74 1024.21 1023.68 1023.13 1022.57 1022.00 1021.41
1023.81 1024.89 1025.92 1026.85 1027.66 1028.34 1028.91 1029.37 1029.75 1030.07 1030.33 1030.55 1030.70 1030.80 1030.83 1030.79 1030.70 1030.57 1030.42 1030.27 1030.12 1030.00 1029.89 1029.78 1029.66 1029.51 1029.32 1029.06 1028.75 1028.38 1027.96 1027.50 1027.04 1026.56 1026.10 1025.64 1025.17 1024.70 1024.20 1023.66 1023.09 1022.48 1021.84
1023.01 1024.10 1025.16 1026.12 1026.97 1027.69 1028.30 1028.82 1029.25 1029.62 1029.94 1030.20 1030.41 1030.55 1030.63 1030.63 1030.57 1030.47 1030.34 1030.20 1030.06 1029.94 1029.84 1029.73 1029.60 1029.45 1029.25 1029.00 1028.69 1028.32 1027.93 1027.51 1027.08 1026.66 1026.25 1025.85 1025.44 1025.01 1024.54 1024.02 1023.45 1022.82 1022.15
1022.37 1023.44 1024.48 1025.45 1026.32 1027.06 1027.70 1028.24 1028.71 1029.12 1029.49 1029.80 1030.05 1030.24 1030.35 1030.39 1030.37 1030.29 1030.19 1030.06 1029.93 1029.81 1029.70 1029.58 1029.45 1029.29 1029.08 1028.83 1028.52 1028.17 1027.80 1027.41 1027.01 1026.63 1026.26 1025.89 1025.52 1025.12 1024.68 1024.18 1023.62 1023.00 1022.33
1021.90 1022.93 1023.94 1024.88 1025.73 1026.47 1027.12 1027.67 1028.16 1028.60 1028.99 1029.34 1029.63 1029.86 1030.01 1030.10 1030.11 1030.06 1029.97 1029.86 1029.73 1029.61 1029.49 1029.36 1029.22 1029.05 1028.84 1028.58 1028.29 1027.95 1027.60 1027.22 1026.85 1026.49 1026.13 1025.79 1025.43 1025.05 1024.63 1024.16 1023.63 1023.03 1022.38
1021.59 1022.55 1023.50 1024.40 1025.21 1025.93 1026.55 1027.11 1027.60 1028.05 1028.47 1028.84 1029.16 1029.43 1029.62 1029.73 1029.77 1029.76 1029.69 1029.58 1029.46 1029.33 1029.20 1029.06 1028.91 1028.74 1028.53 1028.29 1028.01 1027.69 1027.34 1026.98 1026.62 1026.25 1025.90 1025.55 1025.20 1024.83 1024.43 1023.99 1023.50 1022.95 1022.34
1021.36 1022.25 1023.13 1023.95 1024.71 1025.38 1025.98 1026.52 1027.01 1027.47 1027.90 1028.29 1028.64 1028.93 1029.16 1029.31 1029.38 1029.38 1029.33 1029.24 1029.12 1028.99 1028.85 1028.71 1028.56 1028.39 1028.19 1027.96 1027.69 1027.39 1027.06 1026.70 1026.33 1025.96 1025.59 1025.22 1024.86 1024.50 1024.12 1023.72 1023.28 1022.79 1022.24
1021.12 1021.93 1022.72 1023.48 1024.17 1024.79 1025.36 1025.88 1026.36 1026.83 1027.27 1027.69 1028.06 1028.38 1028.64 1028.82 1028.93 1028.95 1028.92 1028.84 1028.73 1028.60 1028.46 1028.32 1028.17 1028.01 1027.83 1027.61 1027.36 1027.08 1026.76 1026.40 1026.02 1025.63 1025.24 1024.85 1024.48 1024.12 1023.76 1023.39 1023.00 1022.58 1022.10
1020.79 1021.52 1022.24 1022.92 1023.55 1024.12 1024.66 1025.17 1025.66 1026.13 1026.59 1027.03 1027.44 1027.79 1028.08 1028.29 1028.42 1028.48 1028.46 1028.40 1028.30 1028.17 1028.04 1027.90 1027.76 1027.61 1027.44 1027.24 1027.01 1026.74 1026.42 1026.06 1025.68 1025.27 1024.86 1024.46 1024.07 1023.71 1023.37 1023.04 1022.70 1022.33 1021.92
1020.35 1021.01 1021.66 1022.27 1022.84 1023.39 1023.91 1024.41 1024.91 1025.40 1025.89 1026.36 1026.79 1027.17 1027.49 1027.73 1027.89 1027.97 1027.98 1027.93 1027.84 1027.72 1027.59 1027.46 1027.32 1027.17 1027.02 1026.83 1026.61 1026.35 1026.04 1025.69 1025.30 1024.88 1024.46 1024.05 1023.66 1023.30 1022.97 1022.67 1022.37 1022.05 1021.69
1019.84 1020.44 1021.02 1021.57 1022.11 1022.62 1023.13 1023.65 1024.16 1024.68 1025.20 1025.69 1026.16 1026.57 1026.91 1027.18 1027.36 1027.45 1027.48 1027.44 1027.36 1027.25 1027.12 1026.99 1026.85 1026.71 1026.55 1026.37 1026.16 1025.90 1025.60 1025.25 1024.86 1024.45 1024.03 1023.62 1023.24 1022.88 1022.57 1022.28 1022.00 1021.71 1021.38
1019.34 1019.88 1020.40 1020.91 1021.41 1021.91 1022.42 1022.94 1023.48 1024.03 1024.57 1025.10 1025.58 1026.01 1026.37 1026.65 1026.84 1026.95 1026.98 1026.95 1026.88 1026.77 1026.64 1026.50 1026.36 1026.20 1026.04 1025.85 1025.63 1025.37 1025.07 1024.72 1024.35 1023.95 1023.55 1023.15 1022.78 1022.44 1022.13 1021.84 1021.57 1021.28 1020.96
1018.96 1019.45 1019.91 1020.37 1020.83 1021.32 1021.83 1022.36 1022.92 1023.50 1024.06 1024.60 1025.09 1025.53 1025.89 1026.16 1026.35 1026.46 1026.49 1026.46 1026.39 1026.27 1026.14 1025.99 1025.83 1025.65 1025.46 1025.25 1025.02 1024.75 1024.45 1024.11 1023.75 1023.38 1023.00 1022.63 1022.28 1021.95 1021.64 1021.35 1021.06 1020.76 1020.43
1018.80 1019.22 1019.62 1020.02 1020.45 1020.91 1021.42 1021.96 1022.52 1023.10 1023.67 1024.20 1024.69 1025.10 1025.44 1025.70 1025.87 1025.97 1025.99 1025.96 1025.88 1025.76 1025.62 1025.45 1025.26 1025.06 1024.84 1024.60 1024.34 1024.05 1023.75 1023.42 1023.08 1022.73 1022.38 1022.04 1021.72 1021.41 1021.10 1020.80 1020.49 1020.16 1019.79
1018.89 1019.23 1019.56 1019.90 1020.28 1020.70 1021.18 1021.71 1022.26 1022.82 1023.37 1023.87 1024.32 1024.71 1025.01 1025.23 1025.37 1025.45 1025.46 1025.42 1025.33 1025.21 1025.05 1024.87 1024.66 1024.43 1024.18 1023.90 1023.61 1023.30 1022.98 1022.66 1022.33 1022.02 1021.71 1021.41 1021.11 1020.82 1020.52 1020.20 1019.86 1019.50 1019.10
1019.20 1019.44 1019.68 1019.95 1020.27 1020.65 1021.09 1021.57 1022.09 1022.61 1023.11 1023.56 1023.95 1024.28 1024.52 1024.70 1024.80 1024.85 1024.85 1024.80 1024.72 1024.60 1024.44 1024.25 1024.02 1023.76 1023.48 1023.17 1022.84 1022.51 1022.18 1021.86 1021.55 1021.26 1020.99 1020.73 1020.47 1020.20 1019.91 1019.59 1019.22 1018.83 1018.39
1019.63 1019.78 1019.93 1020.12 1020.36 1020.68 1021.06 1021.49 1021.94 1022.40 1022.82 1023.20 1023.51 1023.76 1023.94 1024.06 1024.12 1024.14 1024.13 1024.09 1024.01 1023.90 1023.76 1023.57 1023.33 1023.06 1022.75 1022.41 1022.06 1021.71 1021.36 1021.05 1020.76 1020.50 1020.26 1020.04 1019.81 1019.57 1019.30 1018.98 1018.61 1018.19 1017.74
1020.09 1020.14 1020.20 1020.31 1020.49 1020.73 1021.04 1021.40 1021.77 1022.13 1022.46 1022.74 1022.97 1023.12 1023.23 1023.29 1023.31 1023.31 1023.30 1023.26 1023.21 1023.12 1022.99 1022.82 1022.59 1022.31 1021.99 1021.64 1021.27 1020.90 1020.55 1020.24 1019.97 1019.73 1019.53 1019.35 1019.16 1018.96 1018.71 1018.41 1018.05 1017.63 1017.17
1020.49 1020.46 1020.45 1020.49 1020.60 1020.77 1021.00 1021.26 1021.54 1021.80 1022.02 1022.20 1022.31 1022.38 1022.41 1022.41 1022.40 1022.38 1022.36 1022.34 1022.31 1022.25 1022.16 1022.01 1021.80 1021.53 1021.21 1020.85 1020.47 1020.10 1019.75 1019.45 1019.20 1018.99 1018.82 1018.68 1018.54 1018.38 1018.17 1017.90 1017.57 1017.17 1016.73
1020.80 1020.70 1020.64 1020.63 1020.68 1020.78 1020.93 1021.11 1021.28 1021.43 1021.53 1021.59 1021.60 1021.58 1021.53 1021.48 1021.43 1021.40 1021.39 1021.38 1021.38 1021.35 1021.28 1021.16 1020.97 1020.71 1020.40 1020.05 1019.68 1019.32 1018.98 1018.69 1018.46 1018.29 1018.16 1018.06 1017.96 1017.84 1017.68 1017.45 1017.16 1016.81 1016.40
1021.02 1020.90 1020.81 1020.77 1020.77 1020.81 1020.89 1020.97 1021.03 1021.07 1021.06 1021.01 1020.92 1020.81 1020.69 1020.59 1020.51 1020.46 1020.45 1020.46 1020.46 1020.46 1020.41 1020.30 1020.13 1019.89 1019.60 1019.26 1018.90 1018.56 1018.24 1017.98 1017.78 1017.64 1017.55 1017.48 1017.43 1017.36 1017.24 1017.07 1016.83 1016.53 1016.17
1021.23 1021.12 1021.02 1020.97 1020.94 1020.93 1020.93 1020.92 1020.88 1020.80 1020.69 1020.53 1020.36 1020.17 1019.99 1019.84 1019.73 1019.67 1019.64 1019.65 1019.65 1019.65 1019.60 1019.50 1019.34 1019.11 1018.82 1018.50 1018.17 1017.85 1017.56 1017.33 1017.17 1017.06 1017.01 1016.98 1016.96 1016.93 1016.86 1016.73 1016.55 1016.30 1016.00
Thickness
5507 5506 5505 5504 5505 5505 5506 5508 5510 5513 5516 5520 5524 5528 5532 5535 5538 5541 5543 5545 5548 5551 5553 5557 5560 5562 5563 5565 5567 5568 5570 5572 5574 5576 5578 5584 5589 5592 5595 5597 5599 5601 5603
5495 5494 5492 5490 5490 5490 5491 5493 5494 5496 5499 5503 5506 5510 5515 5519 5523 5526 5529 5531 5534 5536 5539 5542 5546 5549 5550 5552 5553 5555 5556 5559 5561 5563 5565 5568 5574 5580 5585 5586 5588 5591 5593
5483 5481 5478 5476 5475 5475 5475 5477 5477 5479 5482 5486 5489 5494 5499 5502 5505 5509 5513 5516 5519 5522 5525 5528 5532 5535 5536 5539 5540 5542 5544 5545 5548 5551 5552 5555 5559 5563 5570 5575 5577 5579 5582
5471 5467 5465 5462 5461 5460 5460 5460 5462 5463 5465 5468 5472 5475 5479 5483 5487 5491 5496 5500 5504 5507 5510 5513 5517 5520 5523 5525 5527 5529 5531 5533 5535 5538 5542 5544 5547 5548 5553 5559 5564 5567 5570
5458 5453 5451 5449 5447 5446 5445 5445 5446 5447 5449 5452 5454 5458 5461 5465 5470 5475 5480 5484 5488 5491 5494 5498 5501 5505 5509 5511 5514 5515 5517 5519 5522 5525 5528 5531 5535 5538 5539 5544 5548 5553 5557
5445 5441 5438 5435 5433 5431 5431 5431 5431 5432 5433 5435 5438 5441 5444 5449 5454 5458 5463 5467 5471 5475 5478 5482 5486 5490 5494 5497 5500 5502 5504 5506 5509 5512 5515 5517 5521 5525 5528 5531 5535 5538 5543
5432 5428 5425 5422 5420 5418 5417 5417 5417 5418 5418 5420 5423 5426 5429 5433 5437 5441 5446 5450 5454 5458 5463 5466 5471 5475 5479 5482 5485 5488 5491 5493 5496 5499 5502 5506 5509 5512 5515 5518 5521 5525 5530
5420 5416 5412 5409 5407 5405 5404 5404 5404 5404 5404 5405 5408 5410 5414 5417 5421 5425 5429 5433 5438 5442 5446 5450 5456 5460 5464 5468 5471 5474 5477 5480 5483 5486 5489 5493 5497 5500 5503 5506 5508 5511 5517
5408 5403 5400 5397 5394 5393 5391 5391 5390 5390 5390 5391 5393 5396 5399 5402 5406 5410 5414 5417 5422 5427 5431 5434 5440 5446 5450 5454 5457 5460 5464 5466 5469 5473 5476 5480 5484 5487 5491 5494 5497 5499 5503
5396 5392 5388 5385 5382 5380 5379 5378 5377 5377 5377 5378 5379 5382 5384 5387 5391 5395 5399 5402 5407 5411 5416 5421 5426 5432 5436 5440 5443 5446 5450 5453 5456 5459 5462 5466 5470 5473 5477 5481 5485 5488 5490
5383 5378 5375 5372 5370 5368 5366 5365 5365 5365 5365 5366 5366 5368 5370 5373 5376 5381 5385 5389 5392 5396 5402 5407 5412 5417 5422 5426 5429 5432 5436 5439 5442 5446 5449 5453 5456 5459 5463 5466 5470 5474 5477
5372 5367 5363 5360 5358 5356 5354 5353 5352 5353 5353 5353 5354 5355 5356 5359 5363 5367 5371 5374 5378 5383 5387 5393 5398 5403 5407 5411 5415 5419 5422 5426 5430 5433 5435 5439 5442 5445 5448 5452 5456 5461 5465
5362 5357 5352 5349 5346 5345 5343 5342 5341 5340 5341 5341 5341 5342 5343 5345 5349 5353 5357 5360 5364 5369 5373 5378 5384 5388 5393 5397 5401 5405 5409 5413 5417 5420 5423 5426 5429 5432 5435 5439 5442 5447 5452
5351 5346 5342 5338 5336 5334 5332 5331 5330 5330 5330 5330 5329 5329 5331 5333 5336 5340 5344 5347 5351 5354 5359 5364 5369 5374 5378 5383 5387 5391 5396 5400 5404 5408 5411 5414 5417 5420 5423 5426 5429 5433 5438
5342 5337 5332 5328 5325 5323 5322 5320 5319 5319 5319 5319 5318 5318 5319 5321 5325 5328 5331 5335 5338 5341 5345 5350 5355 5359 5363 5369 5374 5378 5383 5387 5392 5396 5399 5402 5405 5408 5411 5415 5418 5421 5425
5332 5327 5322 5318 5314 5312 5310 5309 5308 5308 5309 5309 5308 5308 5309 5311 5313 5316 5319 5322 5326 5329 5333 5338 5341 5345 5351 5355 5361 5365 5369 5374 5378 5383 5386 5389 5393 5396 5400 5404 5408 5411 5414
5320 5315 5311 5306 5304 5301 5300 5298 5297 5297 5298 5298 5298 5298 5299 5301 5303 5305 5308 5310 5313 5317 5321 5325 5328 5332 5337 5341 5347 5352 5357 5361 5366 5369 5374 5378 5382 5385 5388 5392 5396 5400 5405
5309 5304 5300 5297 5294 5292 5289 5288 5287 5287 5287 5287 5287 5288 5289 5291 5293 5295 5296 5299 5301 5304 5308 5312 5315 5320 5324 5329 5334 5339 5344 5349 5353 5357 5361 5366 5370 5374 5377 5381 5385 5390 5395
5298 5293 5289 5287 5284 5282 5280 5278 5277 5276 5276 5276 5276 5277 5278 5280 5282 5284 5286 5288 5290 5293 5296 5300 5304 5308 5313 5317 5322 5327 5332 5337 5342 5346 5351 5355 5361 5365 5369 5372 5376 5380 5384
5289 5284 5280 5277 5275 5272 5270 5267 5265 5264 5263 5264 5266 5267 5268 5269 5271 5273 5275 5277 5279 5282 5286 5290 5293 5297 5301 5306 5311 5316 5321 5326 5331 5336 5342 5346 5351 5355 5359 5362 5366 5370 5375
5279 5275 5271 5268 5265 5262 5259 5256 5255 5253 5253 5254 5256 5257 5257 5258 5260 5262 5265 5267 5269 5272 5276 5280 5284 5288 5292 5296 5301 5306 5310 5315 5320 5326 5331 5337 5341 5346 5349 5353 5357 5362 5365
5269 5265 5261 5258 5255 5252 5249 5247 5245 5244 5244 5244 5246 5247 5249 5249 5251 5253 5255 5257 5259 5262 5266 5270 5275 5279 5282 5286 5291 5297 5302 5306 5311 5316 5321 5326 5331 5336 5340 5344 5348 5352 5355
5259 5255 5251 5248 5245 5242 5239 5236 5235 5234 5234 5235 5236 5238 5240 5240 5241 5243 5245 5247 5249 5252 5255 5259 5264 5269 5273 5278 5283 5289 5294 5298 5302 5307 5313 5317 5322 5326 5330 5335 5339 5342 5345
5248 5245 5241 5237 5235 5232 5229 5226 5226 5226 5225 5226 5227 5229 5231 5232 5233 5235 5236 5238 5240 5242 5246 5250 5254 5259 5264 5269 5274 5280 5285 5290 5294 5299 5304 5308 5312 5317 5322 5326 5329 5332 5336
5238 5234 5230 5227 5225 5222 5220 5218 5217 5216 5216 5217 5218 5220 5222 5223 5225 5227 5228 5230 5232 5233 5237 5241 5245 5249 5255 5260 5265 5271 5276 5281 5286 5291 5295 5299 5303 5308 5312 5316 5320 5324 5327
5227 5224 5220 5218 5215 5213 5211 5209 5208 5207 5207 5208 5209 5210 5212 5214 5216 5219 5221 5223 5225 5228 5231 5234 5238 5242 5247 5252 5257 5263 5268 5273 5278 5282 5286 5291 5295 5299 5303 5307 5311 5315 5318